Date String (YYYY-MM-DD hh:mm:ss) UTC,Instrument flags,Ambient pressure (hPa),Sample flow (lpm),Bypass flow (lpm),Sample temperature (°C),Ambient temperature (°C),ASC tube jacket temperature (°C),LED temperature (°C),Box temperature (°C),Sample RH (%),Span deviation,Mass concentration (μg/m³),Mass concentration (μg/m³),Mass concentration (μg/m³)
DateTimeUTC,F1_M11,P_M11,Q1_M11,Q2_M11,T1_M11,T2_M11,T3_M11,T4_M11,T5_M11,U1_M11,ZSPAN_M11,X0_M11,X2_M11,X1_M11
2022-06-17 02:00:00,,0826.5,5.00,0.00,29.1,27.3,00.0,37.8,31.0,23.2,0004.4,0135.58,0026.29,0006.25
2022-06-17 02:01:00,,0826.5,5.01,0.00,29.1,27.6,00.0,37.9,31.1,23.1,0004.2,0145.70,0028.10,0006.46
2022-06-17 02:02:00,,0826.5,5.00,0.00,29.1,27.8,00.0,37.9,31.1,23.0,0004.5,0151.22,0029.11,0006.59
2022-06-17 02:03:00,,0826.5,5.00,0.00,29.2,28.0,00.0,37.9,31.2,23.0,0004.6,0151.60,0029.37,0006.66
2022-06-17 02:04:00,,0826.5,4.99,0.00,29.2,28.2,00.0,37.9,31.3,22.8,0004.5,0146.26,0028.84,0006.65
2022-06-17 02:05:00,,0826.5,5.01,0.00,29.3,28.4,00.0,38.0,31.4,22.7,0004.9,0137.41,0027.46,0006.53
2022-06-17 02:06:00,,0826.5,5.01,0.00,29.3,28.1,00.0,37.9,31.3,22.7,0005.0,0122.23,0025.21,0006.31
2022-06-17 02:07:00,,0826.5,4.99,0.00,29.2,27.3,00.0,37.9,31.1,22.8,0004.5,0103.66,0022.28,0006.02
2022-06-17 02:08:00,,0826.5,5.00,0.00,29.2,27.0,00.0,37.9,31.0,22.7,0002.6,0085.94,0019.09,0005.71
2022-06-17 02:09:00,,0826.5,5.01,0.00,29.1,27.1,00.0,37.9,31.0,22.8,0000.0,0069.23,0015.93,0005.35
2022-06-17 02:10:00,,0826.4,4.99,0.00,29.1,27.2,00.0,37.9,31.0,22.9,0000.0,0052.33,0013.24,0005.05
2022-06-17 02:11:00,,0826.4,5.00,0.00,29.1,27.4,00.0,37.9,31.0,22.9,0000.0,0039.93,0010.65,0004.76
2022-06-17 02:12:00,,0826.5,5.01,0.00,29.1,27.6,00.0,37.9,31.1,22.9,0000.0,0030.50,0008.85,0004.57
2022-06-17 02:13:00,,0826.5,5.01,0.00,29.2,27.9,00.0,37.9,31.2,22.9,0000.0,0026.32,0008.01,0004.47
2022-06-17 02:14:00,,0826.5,5.01,0.00,29.2,28.1,00.0,37.9,31.3,22.9,0000.0,0027.25,0008.01,0004.45
2022-06-17 02:15:00,,0826.5,5.00,0.00,29.3,28.2,00.0,38.0,31.3,22.9,0000.0,0031.84,0008.43,0004.48
2022-06-17 02:16:00,,0826.4,4.99,0.00,29.3,28.4,00.0,38.0,31.4,23.0,0000.0,0033.49,0009.08,0004.54
2022-06-17 02:17:00,,0826.4,5.01,0.00,29.3,27.8,00.0,37.9,31.2,23.2,0002.2,0036.56,0009.86,0004.64
2022-06-17 02:18:00,,0826.4,4.99,0.00,29.2,27.1,00.0,37.9,31.0,23.3,0002.7,0041.28,0010.54,0004.69
2022-06-17 02:19:00,,0826.4,5.00,0.00,29.2,26.9,00.0,37.9,30.9,23.2,0002.1,0044.63,0011.19,0004.77
2022-06-17 02:20:00,,0826.5,5.00,0.00,29.1,27.0,00.0,37.9,30.9,22.8,0005.2,0044.91,0011.56,0004.84
2022-06-17 02:21:00,,0826.4,4.99,0.00,29.1,27.2,00.0,37.9,31.0,22.9,0005.5,0046.84,0011.86,0004.90
2022-06-17 02:22:00,,0826.4,5.01,0.00,29.1,27.4,00.0,37.9,31.0,22.9,0005.3,0048.35,0012.07,0004.93
2022-06-17 02:23:00,,0826.5,5.01,0.00,29.1,27.6,00.0,37.9,31.1,23.0,0004.3,0049.03,0012.27,0004.96
2022-06-17 02:24:00,,0826.5,4.99,0.00,29.2,27.8,00.0,37.9,31.2,23.1,0003.1,0048.19,0012.36,0004.97
2022-06-17 02:25:00,,0826.5,5.01,0.00,29.2,28.1,00.0,37.9,31.3,23.1,0002.1,0045.39,0011.96,0004.95
2022-06-17 02:26:00,,0826.5,5.00,0.00,29.2,28.2,00.0,38.0,31.3,23.1,0003.1,0040.94,0011.37,0004.92
2022-06-17 02:27:00,,0826.4,5.00,0.00,29.3,28.4,00.0,38.0,31.4,23.0,0000.5,0038.86,0010.69,0004.85
2022-06-17 02:28:00,,0826.5,5.00,0.00,29.3,28.1,00.0,38.0,31.3,22.9,0000.0,0036.51,0010.05,0004.78
2022-06-17 02:29:00,,0826.5,5.02,0.00,29.2,27.2,00.0,37.9,31.0,22.9,0000.0,0032.50,0009.37,0004.74
2022-06-17 02:30:00,,0826.5,4.99,0.00,29.2,27.0,00.0,37.9,30.9,23.0,0000.0,0029.25,0008.76,0004.69
2022-06-17 02:31:00,,0826.5,5.00,0.00,29.1,27.0,00.0,37.9,30.9,22.9,0000.0,0026.87,0008.45,0004.65
2022-06-17 02:32:00,,0826.5,5.00,0.00,29.1,27.2,00.0,37.9,31.0,22.9,0000.0,0024.57,0008.16,0004.63
2022-06-17 02:33:00,,0826.4,4.99,0.00,29.1,27.4,00.0,37.9,31.0,22.9,0000.0,0023.44,0007.97,0004.61
2022-06-17 02:34:00,,0826.5,4.99,0.00,29.1,27.6,00.0,37.9,31.1,23.0,0000.0,0022.56,0007.78,0004.59
2022-06-17 02:35:00,,0826.5,5.01,0.00,29.1,27.8,00.0,37.9,31.2,23.0,0000.0,0021.82,0007.59,0004.59
2022-06-17 02:36:00,,0826.6,5.00,0.00,29.2,28.0,00.0,37.9,31.2,23.0,0000.0,0022.09,0007.59,0004.59
2022-06-17 02:37:00,,0826.6,5.00,0.00,29.2,28.2,00.0,38.0,31.3,23.1,0000.0,0022.19,0007.59,0004.58
2022-06-17 02:38:00,,0826.7,4.99,0.00,29.3,28.4,00.0,38.0,31.4,23.0,0000.0,0021.39,0007.55,0004.59
2022-06-17 02:39:00,,0826.7,4.99,0.00,29.3,28.4,00.0,38.0,31.4,23.2,0000.0,0021.14,0007.49,0004.61
2022-06-17 02:40:00,,0826.7,5.01,0.00,29.3,27.9,00.0,38.0,31.2,23.7,0000.0,0021.72,0007.59,0004.62
2022-06-17 02:41:00,,0826.8,5.00,0.00,29.2,27.1,00.0,37.9,31.0,24.4,0000.0,0022.33,0007.70,0004.65
2022-06-17 02:42:00,,0826.8,4.99,0.00,29.2,27.0,00.0,37.9,31.0,26.6,-000.0,0023.64,0007.86,0004.69
2022-06-17 02:43:00,,0827.0,4.99,0.00,29.1,27.1,00.0,37.9,31.0,28.0,-000.2,0024.55,0008.02,0004.74
2022-06-17 02:44:00,,0826.9,4.99,0.00,29.1,27.2,00.0,37.9,31.0,29.8,0000.6,0025.44,0008.25,0004.78
2022-06-17 02:45:00,,0827.1,5.02,0.00,29.1,27.4,00.0,37.9,31.1,30.7,0001.8,0025.70,0008.51,0004.85
2022-06-17 02:46:00,,0827.3,4.99,0.00,29.1,27.7,00.0,37.9,31.1,31.1,0003.0,0027.51,0008.86,0004.89
2022-06-17 02:47:00,,0827.1,4.99,0.00,29.2,27.9,00.0,37.9,31.2,31.3,0003.2,0028.73,0009.13,0004.93
2022-06-17 02:48:00,,0827.1,5.01,0.00,29.2,28.1,00.0,38.0,31.3,31.1,0003.1,0029.91,0009.43,0005.00
2022-06-17 02:49:00,,0827.2,5.00,0.00,29.3,28.2,00.0,38.0,31.3,30.8,0003.3,0031.33,0009.69,0005.05
2022-06-17 02:50:00,,0827.2,5.01,0.00,29.3,28.4,00.0,38.0,31.4,30.6,0003.3,0032.96,0010.04,0005.09
2022-06-17 02:51:00,,0827.2,4.99,0.00,29.3,27.9,00.0,38.0,31.2,30.5,0003.7,0033.24,0010.29,0005.13
2022-06-17 02:52:00,,0827.2,4.99,0.00,29.2,27.0,00.0,37.9,31.0,30.5,0003.6,0032.72,0010.40,0005.14
2022-06-17 02:53:00,,0827.2,5.01,0.00,29.1,26.8,00.0,37.9,30.9,30.7,0003.5,0034.69,0010.55,0005.16
2022-06-17 02:54:00,,0827.2,5.00,0.00,29.1,26.8,00.0,37.9,30.9,30.8,0001.0,0036.05,0010.68,0005.16
2022-06-17 02:55:00,,0827.1,4.99,0.00,29.1,27.0,00.0,37.9,30.9,30.8,0000.0,0035.75,0010.70,0005.16
2022-06-17 02:56:00,,0827.1,5.00,0.00,29.1,27.2,00.0,37.9,31.0,30.8,0000.0,0036.12,0010.75,0005.17
2022-06-17 02:57:00,,0827.0,5.00,0.00,29.1,27.4,00.0,37.9,31.0,30.8,0000.0,0035.63,0010.68,0005.16
2022-06-17 02:58:00,,0827.1,5.00,0.00,29.1,27.7,00.0,37.9,31.1,30.7,0000.0,0036.05,0010.69,0005.16
2022-06-17 02:59:00,,0827.0,5.00,0.00,29.1,27.9,00.0,37.9,31.2,30.6,0000.0,0036.42,0010.68,0005.12
